Location: Mahannah Oil Field
(37.4664°N, 96.6003°W)
Time: 02:06:49
(UTC+00:00)

deb Explorer IX - Pass Details

Date: 25 January 2021
Orbit: 537 x 1102 km, 38.8° (Epoch: 25 February)

Event Time Altitude Azimuth Distance (km) Brightness Sun altitude
Rises 02:37:19 0° 277° (W) 3,522 ? -34.7°
Reaches altitude 10° 02:40:06 10° 279° (W) 2,487 ? -35.2°
Enters shadow 02:43:24 33° 283° (WNW) 1,310 ? -35.9°
Maximum altitude 02:45:57 80° 6° (N) 767 - -36.4°
Drops below altitude 10° 02:50:52 10° 94° (E) 2,100 - -37.4°
Sets 02:53:03 0° 95° (E) 2,937 - -37.8°
